DL3NBY Weather Reports


Display with metric or nautical units.
time (UTC)temp
F
wind
direction
speed
MPH
gust
MPH
rain 1hr
in
rain 24hr
in
rain mn
in
humidity
%
barometer
mb
20260903145041 65 180 0.0 2.0 0.00 0.07 0.07 96 1018.5
20260903143035 65 220 1.0 3.0 0.00 0.07 0.07 96 1018.5
20260903142032 65 180 0.0 2.0 0.01 0.07 0.07 95 1018.6
20260903141025 64 0.0 0.0 0.04 0.07 0.07 96 1018.6
20260903135037 64 0.0 0.0 0.07 0.07 0.07 98 1018.9
20260903134111 63 0.0 0.0 0.07 0.07 0.07 98 1018.9
20260903133108 63 0.0 1.0 0.07 0.07 0.07 97 1019.2
20260903132104 64 0.0 1.0 0.06 0.06 0.06 95 1019.4
20260903131101 65 0.0 1.0 0.04 0.04 0.04 92 1019.5
20260903125055 70 239 1.0 5.0 0.00 0.00 0.00 76 1019.6
20260903124052 72 225 0.0 4.0 0.00 0.00 0.00 68 1019.3
20260903122045 72 0.0 1.0 0.00 0.00 0.00 64 1019.0
20260903121042 72 192 2.0 5.0 0.00 0.00 0.00 64 1018.9
20260903115036 74 219 2.0 8.0 0.00 0.00 0.00 62 1019.1
20260903114033 74 0 1.0 4.0 0.00 0.00 0.00 60 1019.2
20260903113030 74 207 1.0 6.0 0.00 0.00 0.00 60 1019.4
20260903112047 74 281 2.0 6.0 0.00 0.00 0.00 59 1019.3
20260903111023 74 201 1.0 5.0 0.00 0.00 0.00 60 1019.4
20260903110040 72 225 1.0 3.0 0.00 0.00 0.00 60 1019.4
20260903105016 72 217 5.0 14.0 0.00 0.00 0.00 62 1019.7
20260903102106 70 203 1.0 8.0 0.00 0.00 0.00 68 1019.9
20260903101123 70 207 1.0 4.0 0.00 0.00 0.00 66 1020.1
20260903100100 70 260 2.0 6.0 0.00 0.00 0.00 67 1020.1
20260903095057 69 214 1.0 4.0 0.00 0.00 0.00 67 1020.2
20260903094054 68 230 1.0 7.0 0.00 0.00 0.00 68 1020.4
20260903093050 69 249 2.0 4.0 0.00 0.00 0.00 67 1020.2
20260903092047 69 226 1.0 4.0 0.00 0.00 0.00 65 1020.2
20260903091104 69 192 2.0 5.0 0.00 0.00 0.00 67 1020.1
20260903090041 68 225 1.0 6.0 0.00 0.00 0.00 67 1020.0
20260903085038 68 222 1.0 8.0 0.00 0.00 0.00 71 1020.2
20260903083051 67 203 1.0 5.0 0.00 0.00 0.00 73 1020.2
20260903082108 65 222 3.0 9.0 0.00 0.00 0.00 74 1020.2
20260903075019 62 158 0.0 2.0 0.00 0.00 0.00 87 1019.8
20260903074016 62 186 1.0 4.0 0.00 0.00 0.00 87 1019.6
20260903073113 61 270 0.0 3.0 0.00 0.00 0.00 88 1019.8
20260903072110 60 90 0.0 2.0 0.00 0.00 0.00 90 1020.0
20260903070103 58 45 1.0 3.0 0.00 0.00 0.00 93 1020.3
20260903065100 57 0.0 2.0 0.00 0.00 0.00 94 1020.3
20260903064117 56 0.0 2.0 0.00 0.00 0.00 96 1020.3
20260903063054 54 0.0 2.0 0.00 0.00 0.00 97 1020.3
20260903062051 53 0.0 2.0 0.00 0.00 0.00 99 1020.5
20260903061128 52 0.0 0.0 0.00 0.00 0.00 99 1020.4
20260903060044 52 0.0 0.0 0.00 0.00 0.00 99 1020.6
20260903054038 50 0.0 0.0 0.00 0.00 0.00 99 1020.5
20260903053055 49 0.0 0.0 0.00 0.00 0.00 99 1020.3
20260903052052 48 0.0 0.0 0.00 0.00 0.00 99 1020.2
20260903051029 47 0.0 0.0 0.00 0.00 0.00 99 1020.1
20260903045022 46 0.0 0.0 0.00 0.00 0.00 99 1019.9
20260903043016 46 0.0 0.0 0.00 0.00 0.00 99 1019.9
20260903042113 46 0.0 0.0 0.00 0.00 0.00 99 1020.0
20260903041110 47 0.0 0.0 0.00 0.00 0.00 99 1019.9
20260903035123 47 0.0 0.0 0.00 0.00 0.00 99 1020.0
20260903034100 47 0.0 0.0 0.00 0.00 0.00 99 1020.1
20260903033057 47 0.0 0.0 0.00 0.00 0.00 99 1020.1
20260903031050 47 0.0 0.0 0.00 0.00 0.00 99 1020.1
20260903030048 47 0.0 0.0 0.00 0.00 0.00 99 1020.1
20260903024041 47 0.0 0.0 0.00 0.00 0.00 99 1020.0
20260903021031 49 0.0 0.0 0.00 0.00 0.00 99 1020.2
20260903020028 48 0.0 0.0 0.00 0.00 0.00 99 1020.1
20260903013040 48 0.0 0.0 0.00 0.00 0.00 99 1020.0
20260903012015 49 0.0 0.0 0.00 0.00 0.00 99 1020.1
20260903011112 49 0.0 0.0 0.00 0.00 0.00 99 1020.2
20260903010109 50 0.0 0.0 0.00 0.00 0.00 99 1020.1
20260903005125 50 0.0 0.0 0.00 0.00 0.00 99 1020.1
20260903004102 50 0.0 0.0 0.00 0.00 0.00 99 1020.0
20260903003059 50 0.0 0.0 0.00 0.00 0.00 99 1020.0
20260903002056 51 0.0 0.0 0.00 0.00 0.00 99 1020.1
20260903001053 52 0.0 0.0 0.00 0.00 0.00 99 1020.0
20260903000049 52 0.0 0.0 0.00 0.00 0.00 99 1020.0
20260902235039 53 0.0 0.0 0.00 0.00 0.00 99 1020.0
20260902234035 53 0.0 0.0 0.00 0.00 0.00 99 1020.0
20260902233030 54 0.0 0.0 0.00 0.00 0.00 98 1019.9
20260902231042 54 0.0 0.0 0.00 0.00 0.00 98 1019.9
20260902230018 55 0.0 0.0 0.00 0.00 0.00 98 1019.9
20260902225016 56 0.0 0.0 0.00 0.00 0.00 97 1020.0
20260902224113 57 0.0 0.0 0.00 0.00 0.00 97 1019.9
20260902223109 57 0.0 0.0 0.00 0.00 0.00 97 1019.9
20260902221123 58 0.0 0.0 0.00 0.00 0.00 97 1019.9
20260902220100 58 0.0 0.0 0.00 0.00 0.00 97 1019.9
20260902215056 58 0.0 0.0 0.00 0.00 0.00 97 1019.8
20260902213050 58 0.0 0.0 0.00 0.00 0.00 97 1019.9
20260902211044 57 0.0 0.0 0.00 0.00 0.00 97 1019.8
20260902210041 57 0.0 0.0 0.00 0.00 0.00 97 1019.8
20260902205038 56 0.0 0.0 0.00 0.00 0.00 97 1019.8
20260902204034 56 0.0 0.0 0.00 0.00 0.00 96 1019.8
20260902203032 56 0.0 0.0 0.00 0.00 0.00 95 1019.7
20260902202028 57 0.0 0.0 0.00 0.00 0.00 95 1019.7
20260902201025 58 0.0 0.0 0.00 0.00 0.00 93 1019.5
20260902200022 58 0.0 0.0 0.00 0.00 0.00 93 1019.4
20260902195018 58 0.0 0.0 0.00 0.00 0.00 93 1019.4
20260902194036 58 0.0 0.0 0.00 0.00 0.00 93 1019.3
20260902192109 59 0.0 0.0 0.00 0.00 0.00 93 1019.2
20260902191106 59 0.0 0.0 0.00 0.00 0.00 92 1019.1
20260902182050 60 0.0 0.0 0.00 0.00 0.00 88 1018.8
20260902181047 61 0.0 0.0 0.00 0.00 0.00 88 1018.7
20260902180104 62 0.0 0.0 0.00 0.00 0.00 86 1018.6
20260902175041 63 0.0 0.0 0.00 0.00 0.00 85 1018.6
20260902174038 64 0.0 0.0 0.00 0.00 0.00 81 1018.5
20260902173034 66 0.0 0.0 0.00 0.00 0.00 79 1018.5
20260902172031 69 0.0 0.0 0.00 0.00 0.00 71 1018.5
20260902171108 70 0.0 2.0 0.00 0.00 0.00 62 1018.5
20260902170025 71 0.0 2.0 0.00 0.00 0.00 61 1018.4
20260902165022 72 0.0 1.0 0.00 0.00 0.00 63 1018.3
20260902163016 72 198 1.0 6.0 0.00 0.00 0.00 63 1018.4
20260902162113 73 266 1.0 4.0 0.00 0.00 0.00 62 1018.3
20260902161110 74 225 0.0 3.0 0.00 0.00 0.00 61 1018.3
20260902160106 73 190 0.0 5.0 0.00 0.00 0.00 64 1018.2
20260902155103 73 0.0 2.0 0.00 0.00 0.00 64 1018.3
20260902154059 73 283 1.0 5.0 0.00 0.00 0.00 64 1018.5
20260902153056 75 180 0.0 2.0 0.00 0.00 0.00 64 1018.5
20260902152053 75 186 1.0 6.0 0.00 0.00 0.00 61 1018.5
20260902151050 74 225 0.0 3.0 0.00 0.00 0.00 62 1018.6
20260902150047 74 158 0.0 2.0 0.00 0.00 0.00 63 1018.6